[[{"header":{"parameterUnit":"m.s-1","parameterCategory":1,"la1":30.2991,"la2":30.254,"lo1":-89.0895,"lo2":-89.0444,"dy":0.0017,"dx":0.0017,"nx":28,"ny":28,"refTime":"2024-06-12T09:00:00:Z","depth":0,"parameterNumber":2,"parameterNumberName":"U-component_of_WINDS"},"data":[0,0,0,0,0,0,0,0,0,0,0,0,0,0,0,0,0,0,0,0,0,0,0,0,0,0,0,0,0,0,0,0,0,0,0,0,0,0,0,0,0,0,0,0,0,0,0,0,0,0,0,0,0,0,0,0,0,0,1.4553,1.4554,0,1.4685,1.4686,1.4688,1.4686,1.4684,1.4683,1.4681,1.482,1.4825,1.4831,0,0,0,0,0,0,0,0,0,0,0,0,0,1.4303,1.4308,1.4553,1.4554,1.4556,1.4684,1.4686,1.4688,1.4686,1.4684,1.4682,1.468,1.4818,1.4825,1.4831,0,0,0,0,0,0,0,0,0,0,0,0,0,1.4421,1.4309,1.4552,1.4571,1.4573,1.4684,1.4686,1.4688,1.4687,1.4684,1.4681,1.4679,1.4816,1.4824,1.4832,1.4935,0,0,1.4857,1.486,0,0,0,0,0,0,0,0,1.4414,1.443,1.4566,1.4569,1.4573,1.4666,1.4649,1.4771,1.4687,1.4644,1.4681,1.4678,1.4771,1.4783,1.4814,1.4941,1.4947,1.4857,1.4862,1.4866,1.4868,0,0,0,0,0,0,0,1.4406,1.4425,1.4605,1.4568,1.4572,1.4573,1.4587,1.4672,1.4721,1.4647,1.4648,1.4663,1.4773,1.4806,1.4817,1.4949,1.4857,1.4864,1.4869,1.4872,1.5167,1.517,0,0,0,0,0,0,1.4394,1.4418,1.4601,1.4609,1.4485,1.458,1.4595,1.4639,1.472,1.473,1.4665,1.4663,1.4793,1.4808,1.4822,1.4946,1.4866,1.4873,1.4878,1.5164,1.5168,1.5171,0,0,0,0,0,0,1.4388,1.441,1.4595,1.4514,1.4537,1.4587,1.4636,1.4643,1.4676,1.4733,1.4742,1.469,1.4792,1.481,1.4906,1.4951,1.4877,1.4884,1.516,1.5165,1.5169,1.5195,0,0,0,0,0,0,1.4381,1.4408,1.4447,1.4514,1.4541,1.4676,1.4639,1.4647,1.4689,1.4687,1.4759,1.4768,1.4791,1.4894,1.4914,1.496,1.489,1.5157,1.5162,1.5168,1.5191,1.52,1.5208,0,0,0,0,0,1.4372,1.445,1.4449,1.4471,1.459,1.4679,1.4694,1.4718,1.4693,1.4732,1.4769,1.4766,1.4943,1.4904,1.4926,1.4976,1.5154,1.5161,1.5167,1.5187,1.5198,1.5208,0,0,0,0,0,0,1.4387,1.4459,1.4458,1.456,1.4613,1.4678,1.4729,1.473,1.4792,1.4788,1.4816,1.4832,1.4927,1.4962,1.4917,1.5079,1.5046,1.5057,1.5053,1.5064,1.5073,1.5062,1.4897,0,0,0,0,0,1.4402,1.4467,1.4527,1.4611,1.4637,1.4678,1.4718,1.4731,1.4788,1.4811,1.4855,1.4912,1.498,1.5024,1.5091,1.5197,1.5212,1.5242,1.5251,1.5258,1.5267,1.5324,1.5338,1.5193,1.5193,1.5193,0,0,1.4434,1.4481,1.4521,1.4615,1.4657,1.4725,1.4697,1.477,1.482,1.4823,1.4914,1.4949,1.5014,1.5115,1.5162,1.5147,1.5311,1.5266,1.5271,1.5277,1.5333,1.5346,1.5359,1.5198,1.5197,1.5196,0,0,1.4526,1.4568,1.4642,1.4685,1.475,1.4777,1.4795,1.486,1.4883,1.4975,1.4978,1.504,1.5157,1.5203,1.5242,1.5351,1.535,1.5372,1.5418,1.5474,1.5485,1.5495,1.5533,1.5546,1.5382,1.5382,1.5382,0,1.4557,1.4657,1.468,1.4752,1.4793,1.4798,1.4873,1.4915,1.4999,1.5028,1.5009,1.5156,1.52,1.5311,1.5338,1.537,1.5391,1.5363,1.5481,1.5492,1.5502,1.5538,1.5552,1.5384,1.5384,1.5383,1.5383,0,1.4691,1.4761,1.4813,1.4892,1.4939,1.5013,1.5048,1.5094,1.5104,1.5133,1.5228,1.5281,1.5358,1.5386,1.5397,1.5499,1.5487,1.5475,1.5441,1.5517,1.5551,1.5566,1.5387,1.5386,1.5385,1.5385,0,0,1.4794,1.4885,1.4904,1.4939,1.5011,1.5066,1.5141,1.5214,1.5252,1.5311,1.5373,1.5472,1.5461,1.5505,1.5522,1.5571,1.5653,1.5553,1.5555,1.5568,1.5767,1.5774,1.5789,1.5654,1.5657,1.5659,1.5761,0,1.4892,1.5021,1.5045,1.5159,1.5223,1.5229,1.5294,1.5346,1.5376,1.5435,1.5469,1.5538,1.5519,1.5546,1.5595,1.5632,1.5693,1.5626,1.5712,1.5715,1.5693,1.5808,1.5816,1.5909,1.5775,1.5777,1.5779,0,1.5022,1.5082,1.5201,1.5264,1.5292,1.535,1.5419,1.5476,1.5535,1.5554,1.5603,1.5614,1.5692,1.5657,1.5765,1.5718,1.5756,1.578,1.5784,1.5791,1.575,1.5816,1.594,1.5953,1.5801,1.5799,1.5797,0,1.5082,1.5193,1.5279,1.5309,1.5386,1.5426,1.546,1.5517,1.5559,1.5621,1.5648,1.5719,1.5757,1.5811,1.5841,1.5813,1.5947,1.5914,1.5964,1.5963,1.599,1.5988,1.6119,1.6018,1.6018,1.6018,1.6017,0,1.5187,1.526,1.5306,1.5359,1.544,1.5468,1.5549,1.5582,1.5633,1.5693,1.5704,1.576,1.5797,1.5859,1.5884,1.5969,1.5987,1.6004,1.6009,1.6001,1.5999,1.6024,1.6018,1.6021,1.6021,1.602,1.6019,0,1.5267,1.5302,1.5395,1.546,1.5478,1.5535,1.5591,1.5642,1.5673,1.5748,1.5768,1.5815,1.5889,1.5925,1.6016,1.6033,1.6129,1.6131,1.6108,1.6109,1.6156,1.615,1.6307,1.6329,1.6215,1.6216,1.6217,0,1.5331,1.5386,1.5457,1.5497,1.5531,1.5596,1.5639,1.567,1.5714,1.5786,1.5829,1.5903,1.5963,1.608,1.6123,1.6194,1.6196,1.6247,1.6207,1.6197,1.6195,1.619,1.6195,1.6253,1.6254,1.6255,1.6255,0,1.5439,1.5453,1.5514,1.5581,1.5632,1.5687,1.5741,1.5774,1.5813,1.5863,1.5937,1.5983,1.6076,1.6149,1.6222,1.6259,1.6264,1.6268,1.6283,1.6274,1.6258,1.6265,1.6124,1.6264,1.6263,1.6262,1.6262,1.6261,1.5511,1.556,1.5617,1.5685,1.5729,1.5779,1.583,1.5867,1.5929,1.6005,1.602,1.6099,1.6158,1.6256,1.6295,1.6358,1.6347,1.6369,1.6374,1.6378,1.638,1.625,1.6372,1.6372,1.6371,1.6371,1.6371,0,1.5618,1.5655,1.5717,1.5792,1.5845,1.5845,1.5905,1.595,1.6018,1.6072,1.6131,1.6216,1.6287,1.6336,1.6408,1.6449,1.6453,1.6467,1.6463,1.6471,1.6386,1.6365,1.6462,1.6462,1.6462,1.6462,1.6462,1.6462,1.5679,1.5762,1.5784,1.5889,1.5926,1.6002,1.6036,1.6083,1.6126,1.622,1.6278,1.6309,1.6362,1.6438,1.6503,1.6516,1.6541,1.6554,1.6567,1.6487,1.6477,1.6468,1.6448,1.656,1.656,1.6646,1.6647,1.6647]},{"header":{"parameterUnit":"m.s-1","parameterCategory":1,"la1":30.2991,"la2":30.254,"lo1":-89.0895,"lo2":-89.0444,"dy":0.0017,"dx":0.0017,"nx":28,"ny":28,"refTime":"2024-06-12T09:00:00:Z","depth":0,"parameterNumber":3,"parameterNumberName":"V-component_of_WINDS"},"data":[0,0,0,0,0,0,0,0,0,0,0,0,0,0,0,0,0,0,0,0,0,0,0,0,0,0,0,0,0,0,0,0,0,0,0,0,0,0,0,0,0,0,0,0,0,0,0,0,0,0,0,0,0,0,0,0,0,0,1.9892,1.9892,0,1.985,1.9849,1.9849,1.9769,1.9767,1.9766,1.9764,1.972,1.972,1.9721,0,0,0,0,0,0,0,0,0,0,0,0,0,1.9902,1.9903,1.9892,1.9892,1.9891,1.985,1.9849,1.9848,1.9769,1.9767,1.9765,1.9764,1.972,1.972,1.9721,0,0,0,0,0,0,0,0,0,0,0,0,0,1.9883,1.9903,1.9892,1.9847,1.9842,1.985,1.9849,1.9848,1.977,1.9767,1.9765,1.9763,1.972,1.972,1.9721,1.9769,0,0,1.9722,1.9722,0,0,0,0,0,0,0,0,1.9884,1.9882,1.9854,1.985,1.9845,1.9812,1.9836,1.9822,1.977,1.9797,1.9764,1.9762,1.9753,1.975,1.9747,1.9767,1.9765,1.9722,1.9722,1.9722,1.9722,0,0,0,0,0,0,0,1.9885,1.9884,1.9875,1.9853,1.9848,1.9827,1.9822,1.9833,1.9788,1.9795,1.9789,1.9785,1.975,1.9747,1.9746,1.9765,1.9722,1.9722,1.9722,1.9723,1.9818,1.982,0,0,0,0,0,0,1.9894,1.9886,1.9877,1.9874,1.9859,1.9829,1.9823,1.9825,1.9788,1.978,1.9787,1.9781,1.9747,1.9745,1.9744,1.9795,1.9722,1.9723,1.9723,1.9816,1.9819,1.9821,0,0,0,0,0,0,1.9894,1.9894,1.9878,1.9878,1.9875,1.9831,1.9834,1.9825,1.9823,1.9782,1.9773,1.9792,1.9746,1.9743,1.9763,1.9792,1.9723,1.9723,1.9813,1.9817,1.982,1.99,0,0,0,0,0,0,1.9895,1.9894,1.9913,1.9879,1.9875,1.9899,1.9836,1.9826,1.9824,1.9816,1.9785,1.9778,1.9744,1.9762,1.9763,1.9792,1.9723,1.981,1.9815,1.9819,1.9895,1.9906,1.9916,0,0,0,0,0,1.9896,1.9938,1.9915,1.9914,1.9898,1.9901,1.9898,1.9858,1.9826,1.9844,1.9817,1.9779,1.979,1.9765,1.9765,1.9794,1.9808,1.9814,1.9819,1.989,1.9904,1.9915,0,0,0,0,0,0,1.9977,1.9933,1.9906,1.9939,1.9924,1.9888,1.9909,1.9875,1.9869,1.9862,1.9812,1.9806,1.9831,1.9815,1.9789,1.9837,1.9793,1.9798,1.9847,1.986,1.987,1.9872,1.9724,0,0,0,0,0,1.9999,2.0006,1.9967,2.0,1.9994,1.9953,1.9953,1.9923,1.9906,1.9899,1.9874,1.9858,1.9857,1.9858,1.9856,1.9893,1.9883,1.9912,1.9923,1.9932,1.9936,1.9951,1.9963,1.9838,1.9838,1.9838,0,0,2.0044,2.0021,2.0028,2.0015,2.0,2.0007,1.9948,1.9959,1.9963,1.99,1.9916,1.9898,1.9876,1.9904,1.9915,1.9891,1.9969,1.9938,1.9946,1.9945,1.9958,1.9969,1.998,1.9842,1.9841,1.9841,0,0,2.0129,2.0114,2.0137,2.0123,2.0101,2.0073,2.0079,2.0047,2.0032,2.0047,1.9999,2.0003,2.0005,1.999,1.9983,2.0061,2.0023,2.0061,2.0115,2.013,2.014,2.0148,2.0173,2.0183,2.0067,2.0067,2.0067,0,2.0188,2.0197,2.0154,2.0167,2.0161,2.0105,2.0127,2.0116,2.0094,2.0091,2.0065,2.0063,2.0045,2.0067,2.0085,2.0083,2.0086,2.0064,2.0142,2.015,2.0157,2.018,2.019,2.0071,2.0071,2.007,2.007,0,2.0268,2.0275,2.0297,2.0276,2.0274,2.0292,2.025,2.0253,2.0223,2.0197,2.0212,2.0188,2.0178,2.0182,2.0154,2.0199,2.0184,2.0152,2.0105,2.0174,2.0195,2.0203,2.0078,2.0076,2.0075,2.0074,0,0,2.0403,2.0357,2.0366,2.0354,2.0325,2.0329,2.0344,2.0334,2.0335,2.0322,2.0331,2.0332,2.03,2.0292,2.0262,2.0275,2.0334,2.024,2.0238,2.0255,2.0378,2.0401,2.0412,2.031,2.0311,2.0313,2.0379,0,2.0479,2.0501,2.0462,2.0493,2.0497,2.0443,2.0455,2.0437,2.0414,2.0413,2.0387,2.0387,2.0347,2.0341,2.0352,2.0324,2.0357,2.0319,2.0315,2.0316,2.032,2.0423,2.0448,2.0512,2.0387,2.0388,2.0389,0,2.0571,2.0561,2.0592,2.0558,2.0558,2.057,2.0556,2.0557,2.0535,2.0517,2.0507,2.0471,2.048,2.0437,2.0448,2.0423,2.0419,2.0405,2.0407,2.0403,2.0355,2.0419,2.0531,2.054,2.0402,2.0401,2.04,0,2.0662,2.0657,2.0674,2.0666,2.0628,2.0637,2.0621,2.0597,2.0593,2.0581,2.0577,2.0566,2.056,2.0552,2.0513,2.0486,2.0528,2.0482,2.051,2.0511,2.052,2.052,2.063,2.0523,2.0522,2.0522,2.0522,0,2.075,2.077,2.0714,2.0724,2.0744,2.0699,2.072,2.0698,2.0677,2.0681,2.0634,2.0639,2.0588,2.0586,2.0556,2.0568,2.0566,2.055,2.0541,2.0553,2.0554,2.0547,2.0541,2.0525,2.0524,2.0524,2.0523,0,2.0854,2.0818,2.0832,2.0794,2.0785,2.0801,2.0768,2.0775,2.0748,2.0753,2.0752,2.0709,2.0704,2.0665,2.0652,2.0631,2.0654,2.0638,2.0661,2.0655,2.0684,2.0681,2.0792,2.0803,2.0692,2.0693,2.0694,0,2.0911,2.0925,2.0888,2.0888,2.0874,2.0874,2.0868,2.0824,2.082,2.0795,2.0804,2.0796,2.0786,2.0781,2.0748,2.0737,2.0719,2.0759,2.0717,2.0727,2.0715,2.0714,2.0714,2.0767,2.0768,2.0769,2.077,0,2.1015,2.0996,2.099,2.0978,2.0973,2.0961,2.0946,2.0948,2.0899,2.0897,2.0891,2.0884,2.087,2.0861,2.0843,2.0826,2.0789,2.0784,2.0789,2.08,2.0811,2.0802,2.0682,2.0781,2.078,2.0779,2.0779,2.0778,2.1095,2.1104,2.1079,2.1073,2.1057,2.1044,2.1048,2.1021,2.1016,2.1,2.0974,2.0972,2.0947,2.092,2.0905,2.0901,2.088,2.0889,2.0891,2.0893,2.0897,2.0814,2.0898,2.0898,2.0898,2.0897,2.0897,0,2.1194,2.1175,2.117,2.115,2.1146,2.1113,2.1094,2.1092,2.109,2.107,2.1062,2.1054,2.1044,2.101,2.0997,2.1,2.0983,2.0998,2.0996,2.0991,2.0919,2.0914,2.1012,2.1012,2.1012,2.1012,2.1012,2.1012,2.1244,2.1256,2.1234,2.1236,2.1217,2.1214,2.1206,2.1192,2.1176,2.1169,2.1161,2.1139,2.1113,2.1097,2.1086,2.1076,2.1071,2.1092,2.1076,2.1008,2.0997,2.0987,2.0982,2.1092,2.1092,2.1148,2.1149,2.1149]}]]